Tracking 28790 objects as of 19-Apr-2024
HD Live streaming from Space Station
objects crossing your sky now

COSMOS 1275 DEB

Track COSMOS 1275 DEB now!
10-day predictions


NORAD ID: 20505
Int'l Code: 1981-053MS
Perigee: 756.0 km
Apogee: 775.8 km
Inclination: 83.2 °
Period: 100.0 minutes
Semi major axis: 7136 km
RCS: 0.0047 m2 (small)
Launch date: June 4, 1981
Source: Commonwealth of Independent States (former USSR) (CIS)
Launch site: PLESETSK MISSILE AND SPACE COMPLEX (PKMTR)

Note: This is SATELLITE DEBRIS
Your satellite tracking list
Your tracking list is empty




NASA's NSSDC Master Catalog

Two Line Element Set (TLE):
1 20505U 81053MM  24106.50655012  .00005192  00000-0  16442-2 0  9992
2 20505  83.1553 176.1492 0013906 359.5046   0.6131 14.39918937560624
Source of the keplerian elements: AFSPC